Flag for Japan Weather past 2 weeks in Fukuoka, Japan

Now
79 °F

Clear.


Feels Like: 81 °F
Forecast: 74 / 82 °F
Wind: 12 mph from Southeast

Location: Fukuoka Airport

Current Time: Sep 5, 2015 at 12:44:14 PM

Latest Report: Sep 5, 2015 at 12:00 PM


Visibility: 6 mi

Pressure: 29.80 "Hg

Humidity: 70%

Dew point: 68 °F

Location of FukuokaLocation

Historic Weather in Fukuoka — Graph

°F

Fukuoka temperature yesterday

Maximum temperature yesterday: 84 °F (at 12:00 PM)
Minimum temperature yesterday: 72 °F (at 12:00 AM)
Average temperature yesterday: 77 °F

Past Weeks' High & Low Weather Summary

 TemperatureHumidityPressure
High90 °F (Aug 21, 2:00 PM)94% (Aug 21, 6:30 PM)29.92 "Hg (Aug 21, 6:30 PM)
Low70 °F (Aug 26, 5:00 AM)37% (Aug 27, 5:30 PM)28.59 "Hg (Aug 25, 7:30 AM)
Average77 °F79%29.73 "Hg
* Reported Aug 21 11:00 AM — Sep 5 11:30 AM, Fukuoka, Weather by CustomWeather, © 2015

Note: Actual official high and low records may vary slightly from our data, if they occured in-between our weather recording intervals... More about our weather records

Advertising

Fukuoka weather history for previous 24 hours

 ConditionsComfort  
Time TempWeatherWind HumidityBarometerVisibility
11:30 AM
Sat, Sep 5
79 °FClear.12 mph74%29.80 "Hg5 mi
11:00 AM77 °FBroken clouds.12 mph74%29.83 "Hg5 mi
10:30 AM77 °FPartly sunny.12 mph74%29.83 "Hg6 mi
10:00 AM77 °FPartly sunny.8 mph74%29.83 "Hg6 mi
9:30 AM77 °FPartly sunny.6 mph74%29.83 "Hg6 mi
9:00 AM75 °FPartly sunny.8 mph78%29.86 "Hg6 mi
8:30 AM75 °FClear.5 mph78%29.86 "Hg6 mi
8:00 AM73 °FSunny.2 mph83%29.86 "Hg10 mi
7:30 AM73 °FPassing clouds.3 mph83%29.86 "HgN/A
6:30 AM70 °FPartly sunny.3 mph88%29.86 "HgN/A
6:00 AM70 °FSunny.3 mph88%29.83 "Hg10 mi
5:30 AM70 °FClear.2 mph88%29.83 "Hg10 mi
5:00 AM70 °FClear.1 mph88%29.83 "Hg10 mi
4:30 AM72 °FClear.2 mph83%29.83 "Hg10 mi
4:00 AM72 °FClear.2 mph83%29.86 "Hg10 mi
3:30 AM72 °FClear.2 mph83%29.86 "Hg10 mi
3:00 AM72 °FPassing clouds.2 mph83%29.86 "HgN/A
2:30 AM72 °FPassing clouds.2 mph83%29.86 "HgN/A
2:00 AM72 °FPassing clouds.2 mph83%29.86 "HgN/A
1:30 AM72 °FPassing clouds.3 mph83%29.86 "HgN/A
1:00 AM72 °FPassing clouds.3 mph83%29.86 "HgN/A
12:30 AM73 °FPassing clouds.3 mph78%29.86 "HgN/A
12:00 AM73 °FPassing clouds.3 mph78%29.86 "HgN/A
11:30 PM
Fri, Sep 4
73 °FPassing clouds.2 mph83%29.89 "HgN/A
11:00 PM73 °FPassing clouds.3 mph83%29.89 "HgN/A
10:30 PM75 °FPassing clouds.3 mph78%29.89 "HgN/A
10:00 PM75 °FPassing clouds.3 mph83%29.89 "HgN/A
9:30 PM77 °FPassing clouds.5 mph79%29.89 "HgN/A
9:00 PM77 °FPassing clouds.6 mph79%29.89 "HgN/A
8:30 PM77 °FPassing clouds.5 mph74%29.89 "HgN/A
8:00 PM79 °FPassing clouds.5 mph70%29.89 "HgN/A
7:30 PM79 °FPassing clouds.7 mph70%29.86 "HgN/A
7:00 PM79 °FPassing clouds.7 mph70%29.86 "HgN/A
6:30 PM79 °FPassing clouds.10 mph65%29.86 "HgN/A
6:00 PM81 °FScattered clouds.10 mph66%29.86 "HgN/A
5:30 PM81 °FScattered clouds.10 mph66%29.83 "HgN/A
5:00 PM82 °FPassing clouds.9 mph62%29.83 "HgN/A
4:30 PM82 °FPassing clouds.10 mph58%29.83 "HgN/A
4:00 PM82 °FPassing clouds.10 mph62%29.83 "HgN/A
3:30 PM84 °FPassing clouds.10 mph58%29.83 "HgN/A
3:00 PM84 °FPassing clouds.9 mph55%29.83 "HgN/A
2:30 PM84 °FPassing clouds.12 mph55%29.83 "HgN/A
2:00 PM84 °FPassing clouds.10 mph55%29.83 "HgN/A
1:30 PM84 °FPassing clouds.10 mph58%29.86 "HgN/A
1:00 PM84 °FPassing clouds.10 mph58%29.86 "HgN/A
12:30 PM84 °FPassing clouds.7 mph55%29.86 "HgN/A
12:00 PM84 °FScattered clouds.6 mph58%29.86 "HgN/A
Weather by CustomWeather, © 2015

See weather overviewHow to use our weather pages